Ketchikan, AK

8:45 AM AKST on November 13, 2018 (GMT -0900)
Ketchikan International

Weather History for PAKT - March, 2018

Change the Weather History Date:

Sunday, March 11, 2018

  Actual Average Record
Temperature  
Mean Temperature 46 °F -  
Max Temperature 48 °F 44 °F 58 °F (1965)
Min Temperature 44 °F 32 °F 13 °F (1951)
Degree Days  
Heating Degree Days 19    
Moisture  
Dew Point 36 °F    
Average Humidity 71    
Maximum Humidity 87    
Minimum Humidity 53    
Precipitation  
Precipitation 0.03 in - - ()
Sea Level Pressure  
Sea Level Pressure 30.04 in    
Wind  
Wind Speed 10 mph (SSE)    
Max Wind Speed 14 mph    
Max Gust Speed 25 mph    
Visibility 10 miles    
Events Rain    
Averages and records for this station are not official NWS values.
T = Trace of Precipitation, MM = Missing Value Source: NWS Daily Summary

Daily Weather History Graph

Daily Weather History Graph

Search for Another Location

Airport or City:

Astronomy

Mar. 11, 2018 Rise Set
Actual Time 7:11 AM AKDT 6:42 PM AKDT
Civil Twilight 6:35 AM AKDT 7:19 PM AKDT
Nautical Twilight 5:52 AM AKDT 8:02 PM AKDT
Astronomical Twilight 5:08 AM AKDT 8:46 PM AKDT
Moon 4:34 AM AKDT (3/11) 12:34 PM AKDT (3/11)
Length of Visible Light 12h 44m
Length of Day
11h 31m
Waning Crescent, 29% of the Moon is Illuminated
Mar 11
Waning Crescent
Mar 17
New
Mar 24
First Quarter
Mar 31
Full
Apr 7
Last Quarter

Hourly Weather History & Observations

Time (AKDT) Temp. Windchill Dew Point Humidity Pressure Visibility Wind Dir Wind Speed Gust Speed Precip Events Conditions
12:53 AM 44.1 °F 39.5 °F 34.0 °F 68% 29.97 in 10.0 mi South 8.1 mph - N/A   Scattered Clouds
1:53 AM 44.1 °F 38.6 °F 34.0 °F 68% 29.96 in 10.0 mi South 10.4 mph - N/A   Overcast
3:53 AM 44.1 °F 39.0 °F 33.1 °F 65% 29.96 in 10.0 mi South 9.2 mph - N/A   Mostly Cloudy
4:53 AM 44.1 °F 38.1 °F 32.0 °F 63% 29.96 in 10.0 mi South 11.5 mph - N/A   Mostly Cloudy
5:53 AM 44.1 °F 39.5 °F 32.0 °F 63% 29.98 in 10.0 mi South 8.1 mph - N/A   Overcast
6:06 AM 44.6 °F 40.2 °F 32.0 °F 61% 29.98 in 10.0 mi SSE 8.1 mph - N/A   Overcast
6:53 AM 44.6 °F 39.2 °F 32.0 °F 61% 29.99 in 10.0 mi South 10.4 mph - N/A   Overcast
7:53 AM 44.6 °F 39.7 °F 32.0 °F 61% 30.01 in 10.0 mi SSE 9.2 mph - N/A   Overcast
8:53 AM 46.4 °F 40.4 °F 33.8 °F 62% 30.03 in 10.0 mi SSE 13.8 mph 21.9 mph N/A   Overcast
9:53 AM 46.4 °F 41.1 °F 30.2 °F 53% 30.04 in 10.0 mi SSE 11.5 mph - N/A   Overcast
10:53 AM 46.4 °F 41.1 °F 32.0 °F 57% 30.05 in 10.0 mi SSE 11.5 mph - N/A   Overcast
11:53 AM 46.4 °F 40.4 °F 33.8 °F 62% 30.06 in 10.0 mi SE 13.8 mph 25.3 mph N/A   Overcast
12:53 PM 46.4 °F 42.9 °F 33.8 °F 62% 30.06 in 10.0 mi South 6.9 mph - N/A   Overcast
1:53 PM 48.2 °F - 33.8 °F 58% 30.06 in 10.0 mi SSE 13.8 mph - N/A   Overcast
2:53 PM 48.2 °F - 35.6 °F 62% 30.06 in 10.0 mi SE 13.8 mph - N/A   Overcast
3:53 PM 46.4 °F 43.5 °F 39.2 °F 76% 30.06 in 6.0 mi Variable 5.8 mph - N/A Rain Light Rain
4:53 PM 46.4 °F 41.1 °F 39.2 °F 76% 30.07 in 10.0 mi SSE 11.5 mph - N/A Rain Light Rain
5:53 PM 46.4 °F 40.4 °F 41.0 °F 81% 30.07 in 10.0 mi SE 13.8 mph 21.9 mph N/A Rain Light Rain
6:53 PM 44.6 °F 40.2 °F 41.0 °F 87% 30.08 in 8.0 mi South 8.1 mph - N/A Rain Light Rain
7:53 PM 45.0 °F 40.6 °F 41.0 °F 86% 30.09 in 10.0 mi SSE 8.1 mph - 0.03 in   Overcast
8:53 PM 46.0 °F 41.4 °F 41.0 °F 83% 30.07 in 10.0 mi South 9.2 mph - 0.00 in   Overcast
9:13 PM 46.0 °F 41.9 °F 41.0 °F 83% 30.07 in 10.0 mi South 8.1 mph - 0.00 in Rain Light Rain
9:30 PM 45.0 °F 41.2 °F 41.0 °F 86% 30.08 in 10.0 mi South 6.9 mph - 0.00 in   Overcast
9:53 PM 45.0 °F 40.6 °F 41.0 °F 86% 30.08 in 10.0 mi South 8.1 mph 17.3 mph 0.00 in Rain Light Rain
10:35 PM 46.0 °F 43.1 °F 39.9 °F 79% 30.07 in 10.0 mi South 5.8 mph - 0.00 in   Overcast
10:53 PM 46.9 °F - 39.9 °F 77% 30.07 in 10.0 mi Variable 6.9 mph - 0.00 in   Overcast
11:53 PM 46.9 °F - 39.9 °F 77% 30.07 in 10.0 mi South 10.4 mph - 0.00 in   Overcast
12:53 AM 46.9 °F - 41.0 °F 80% 30.07 in 10.0 mi ESE 4.6 mph - 0.00 in Rain Light Rain